Regional Weather Roundup
Issued by NWS Columbia, SC

Home | Current Version | Previous Version | Text Only | Print | Product List | Glossary On
Versions: 1 2 3 4 5 6 7 8 9 10 11 12 13 14 15 16 17 18 19 20 21 22 23 24 25 26 27 28 29 30 31 32 33 34 35 36 37 38 39 40 41 42 43 44 45 46 47 48 49 50
000
ASUS42 KCAE 252110
RWRCAE
REGIONAL WEATHER ROUNDUP
NATIONAL WEATHER SERVICE COLUMBIA SC
500 PM EDT SUN SEP 25 2016

NOTE: "FAIR" INDICATES FEW OR NO CLOUDS BELOW 12,000 FEET WITH NO
SIGNIFICANT WEATHER AND/OR OBSTRUCTIONS TO VISIBILITY.

NOT ALL STATIONS ARE QUALITY CONTROLLED BY THE NATIONAL
WEATHER SERVICE. USE DATA WITH CAUTION...ESPECIALLY
DEWPOINT OBSERVATIONS.

SCZ001>056-GAZ040-063>065-077-252200-
...UPSTATE SOUTH CAROLINA...

CITY           SKY/WX    TMP DP  RH WIND       PRES   REMARKS
ANDERSON       SUNNY     92  60  34 SE7       30.02F
LIBERTY        CLEAR     92  59  32 S8        30.03S
SPARTANBURG    MOSUNNY   86  61  42 E5        30.03F
CLEMSON        SUNNY     94  57  28 E6        30.04F
GREENVILLE     SUNNY     91  61  36 E8        30.05F
GREENWOOD      SUNNY     90  62  39 SE7       30.04F
GREER          MOSUNNY   89  60  37 VRB6      30.03F
ROCK HILL      MOSUNNY   86  65  49 VRB3      30.05F
CHESTER        CLOUDY    88  61  40 SE6       30.05F
LAURENS        CLEAR     90  63  40 S3        30.03F


...CENTRAL SOUTH CAROLINA...

CITY           SKY/WX    TMP DP  RH WIND       PRES   REMARKS
COLUMBIA APT   MOSUNNY   88  67  49 E8        30.03F
COLUMBIA OWENS PTSUNNY   89  68  49 S8        30.04F
MCENTIRE ANGB  MOSUNNY   87  67  51 SE3       30.04F
ORANGEBURG     SUNNY     87  66  49 E7        30.04F
SUMTER SHAW    SUNNY     89  67  48 SE9       30.02F
NEWBERRY       CLEAR     88  64  45 SE6       30.07F
AIKEN          FAIR      86  64  48 E3        30.07F
MANNING        FAIR      84  61  45 SE6       30.04S
LANCASTER      PTCLDY    90  63  40 SE5       30.04F
WINNSBORO      CLEAR     86  64  48 CALM      30.05S


...EASTERN AND COASTAL SOUTH CAROLINA...

CITY           SKY/WX    TMP DP  RH WIND       PRES   REMARKS
MYRTLE BEACH   MOSUNNY   82  68  61 SE9       30.07S
N MYRTLE BCH   SUNNY     82  72  71 E10       30.05S
CONWAY         MOCLDY    81  72  74 SE5       30.04S
MARION         FAIR      82  70  65 CALM      30.04F
HARTSVILLE     FAIR      82  68  61 E5        30.04S
FLORENCE       MOSUNNY   87  69  54 CALM      30.05S
DARLINGTON     MOSUNNY   87  70  56 NE7       30.05F
CHARLESTON APT MOSUNNY   86  70  58 E13       30.03F
MOUNT PLEASANT FAIR      82  73  74 E8        30.04F
WALTERBORO     CLEAR     88  64  45 E8        30.04F
BEAUFORT       PTSUNNY   85  72  65 SE8       30.02F


...EASTERN GEORGIA...

CITY           SKY/WX    TMP DP  RH WIND       PRES   REMARKS
AUGUSTA BUSH F MOSUNNY   89  66  46 SE9       30.01F
AUGUSTA DANIEL MOSUNNY   90  63  40 S8        30.03F
THOMSON        SUNNY     92  68  45 E9        30.07F HX  96
WASHINGTON     FAIR      97  68  38 S8        30.02F HX 101
CLAXTON        FAIR      88  69  53 N12       30.01F
STATESBORO     MOSUNNY   89  71  54 E5        30.02F
SAVANNAH       MOSUNNY   86  67  52 E10       30.02F


...SOUTHERN NORTH CAROLINA...

CITY           SKY/WX    TMP DP  RH WIND       PRES   REMARKS
CHARLOTTE      MOSUNNY   88  67  49 VRB7      30.05F
MONROE         SUNNY     86  68  54 VRB5      30.05F
WADESBORO      PTCLDY    85  68  56 E3        30.05F
RUTHERFORDTON  PTSUNNY   86  64  47 S3        30.07F
ASHEVILLE      CLOUDY    83  59  44 SE3       30.12S

$$



USA.gov is the U.S. government's official web portal to all federal, state and local government web resources and services.